Notices

What's New in latest Release from April 7th, 2021:

- Updated Glossary, including Speed of Maximum Gust, and Total Hourly Precipitation

- Updated national and regional climate services offices contacts and prices information

- Addition of station inventory lists for 1981-2010, 1971-2000, and 1961-1990 Normals.

If you haven't already, please take our survey and provide feedback about our website: https://eccc.sondage-survey.ca/f/LanguageSelection.aspx?s=442ca660-fcf1-47c0-95a9-59707d6fd709

Hourly Data Report for March 23, 2010

HALIFAX STANFIELD INT'L A
NOVA SCOTIA

44°52'48.060" N
63°30'00.050" W
145.40 m
8202250
71395
YHZ

Download Data

Hourly Data (March 2010)
Hourly Data Report for March 23, 2010
TIME
LST
Temp Definition
°C
Dew Point Definition
°C
Rel Hum Definition
%
Precip. Amount Definition
mm

Wind Dir Definition
10's deg

Wind Spd Definition
km/h
Visibility Definition
km
Stn Press Definition
kPa
Hmdx Definition


Wind Chill Definition


Weather Definition


00:00 6.1 5.4 95   9 7 6.4 100.30     Rain
01:00 5.7 5.2 97   13 13 4.8 100.27     Rain,Fog
02:00 4.9 4.5 97   11 15 3.2 100.27     Rain,Fog
03:00 4.7 4.2 97   8 15 9.7 100.22     Rain Showers,Fog
04:00 4.4 3.9 97   8 13 4.8 100.20     Rain Showers,Fog
05:00 4.1 3.8 98   10 15 4.8 100.22     Rain Showers,Fog
06:00 3.9 3.5 97   7 15 4.8 100.16     Rain Showers,Fog
07:00 3.8 3.3 97   7 17 2.4 100.19     Rain Showers,Fog
08:00 3.8 3.3 97   8 19 2.4 100.22     Rain Showers,Fog
09:00 3.8 3.1 95   8 28 4.8 100.16     Rain Showers,Fog
10:00 3.9 3.0 94   8 24 6.4 100.13     Rain Showers,Fog
11:00 3.6 2.7 94   9 19 2.4 100.07     Rain Showers,Fog
12:00 3.7 3.0 95   8 17 2.4 100.01     Rain Showers,Fog
13:00 3.6 2.8 94   9 32 3.2 99.95     Rain Showers,Fog
14:00 3.6 2.7 94   9 30 6.4 99.77     Rain Showers,Fog
15:00 3.5 2.7 94   10 30 6.4 99.67     Rain,Fog
16:00 3.4 2.7 95   10 35 8.0 99.57     Rain,Fog
17:00 3.1 2.3 94   10 37 12.9 99.42     Rain
18:00 2.6 2.1 96   10 33 1.6 99.33     Rain,Fog
19:00 2.5 2.0 96   10 33 2.4 99.23     Rain,Fog
20:00 2.5 2.0 96   9 33 3.2 99.12     Rain,Fog
21:00 2.6 2.3 98   10 28 1.2 98.98     Rain,Fog
22:00 3.0 2.5 97   10 26 2.4 98.78     Rain,Fog
23:00 3.4 2.8 96   9 33 4.8 98.60     Rain,Fog

Notes on Data Quality.

Legend

  • E = Estimated
  • M = Missing
  • NA = Not Available*
  • [empty] = Indicates an unobserved value
Date modified: